Location: Theodore Roosevelt National Park
(46.9990°N, 103.4631°W)
Time: 06:34:45
(UTC-06:00)

Iridium 37 - Visible Passes

Search period start: 26 May 2016 00:00
Search period end: 05 June 2016 00:00
Orbit: 776 x 779 km, 86.4° (Epoch: 25 May)

Date Brightness Start Highest point End Pass type
(mag) Time Alt. Az. Time Alt. Az. Time Alt. Az.
26 May 6.6 03:43:10 10° N 03:48:11 45° E 03:53:11 10° SSE visible
27 May 7.5 03:10:03 10° NNE 03:14:27 27° ENE 03:18:50 10° SE visible
28 May 8.1 02:37:24 10° NNE 02:40:34 16° ENE 02:43:43 10° ESE visible
28 May 5.5 04:16:41 10° N 04:21:55 75° W 04:27:07 10° S visible
29 May 6.0 03:43:10 10° N 03:48:23 64° E 03:53:33 10° SSE visible
30 May 6.9 03:09:53 10° NNE 03:14:43 37° E 03:19:31 10° SE visible
31 May 7.7 02:36:53 10° NNE 02:40:55 22° ENE 02:44:54 10° ESE visible
31 May 5.8 04:16:54 10° NNW 04:21:59 53° W 04:27:02 10° SSW visible
01 Jun 8.2 02:04:38 10° NE 02:06:58 13° ENE 02:09:18 10° E visible
01 Jun 5.6 03:43:15 10° N 03:48:30 88° ENE 03:53:44 10° S visible
02 Jun 6.3 03:09:49 10° N 03:14:55 51° E 03:20:00 10° SSE visible
03 Jun 7.2 02:36:38 10° NNE 02:41:12 30° ENE 02:45:45 10° SE visible
03 Jun 6.2 04:17:12 10° NNW 04:22:00 38° W 04:26:46 10° SSW visible
04 Jun 7.9 02:03:50 10° NNE 02:07:21 18° ENE 02:10:51 10° ESE visible
04 Jun 5.6 03:43:25 10° N 03:48:36 66° W 03:53:46 10° S visible
